User: anonymous   Login
Location: Hopkins Observatory
(42.6965°N, 73.1843°W)
Time: 09:31:50
(UTC-04:00)
Language:

UOSAT-12 - Orbit

View from above orbital plane
View from above orbital plane
View from above satellite
View from above satellite

Ground track
Ground track

The orbit data is extracted from the following two-line orbital elements,

1 25693U 99021A   15186.51036036  .00000257  00000-0  52053-4 0  9994
2 25693 064.5547 161.7879 0040802 238.3230 258.8428 14.80473454874659
Epoch (UTC): 05 July 2015 12:14:55
Eccentricity: 0.0040802
inclination: 64.5547°
perigee height: 599 km
apogee height: 656 km
right ascension of ascending node: 161.7879°
argument of perigee: 238.3230°
revolutions per day: 14.80473454
mean anomaly at epoch: 258.8428°
orbit number at epoch: 87465

The dashed part of the orbit path shows where the satellite is in the earth's shadow,  

DLR